Regional Weather Roundup
Issued by NWS Sioux Falls, SD

Home | Current Version | Previous Version | Text Only | Print | Product List | Glossary On
Versions: 1 2 3 4 5 6 7 8 9 10 11 12 13 14 15 16 17 18 19 20 21 22 23 24 25 26 27 28 29 30 31 32 33 34 35 36 37 38 39 40 41 42 43 44 45 46 47 48 49 50
000
ASUS43 KFSD 031602
RWRFSD

WEATHER ROUNDUP FOR SE SOUTH DAKOTA/SW MINNESOTA/NW IOWA
NATIONAL WEATHER SERVICE SIOUX FALLS SD
1100 AM CDT FRI JUL 03 2015

NOTE: "FAIR" INDICATES FEW OR NO CLOUDS BELOW 12,000 FEET WITH NO
SIGNIFICANT WEATHER AND OR OBSTRUCTIONS TO VISIBILITY.


SDZ038>040-050-052>070-031700-
SOUTHEAST SOUTH DAKOTA

CITY           SKY/WX    TMP DP  RH WIND       PRES   REMARKS
BROOKINGS      CLOUDY    66  61  82 S5        30.02F
CHAMBERLAIN    PTSUNNY   68  67  95 CALM      30.02S
HURON          MOSUNNY   70  65  84 VRB3      29.98F
MADISON        PTSUNNY   66  66 100 W5        30.02F
MITCHELL       CLOUDY    66  64  93 S5        30.01F FOG
SIOUX FALLS    SUNNY     69  61  75 VRB5      30.01F
WINNER         FAIR      77  61  57 NE7       30.03F
YANKTON        CLOUDY    70  61  73 CALM      30.02S
$$

MNZ071-072-080-081-089-090-097-098-031700-
SOUTHWEST MINNESOTA

CITY           SKY/WX    TMP DP  RH WIND       PRES   REMARKS
FAIRMONT       SUNNY     70  54  56 W5        30.00F
JACKSON        MOSUNNY   70  59  68 W6        30.02S
LUVERNE        SUNNY     70  55  60 SW5       30.02F
MARSHALL       SUNNY     72  55  56 NW8       29.98S
MONTEVIDEO     SUNNY     73  63  68 CALM      29.98S
PIPESTONE      SUNNY     66  57  72 SW6       30.01F
REDWOOD FALLS  SUNNY     71  60  68 W5        29.98F
TRACY          SUNNY     72  59  64 W5        30.00S
WINDOM         MOSUNNY   72  57  60 W7        30.01S
WORTHINGTON    MOSUNNY   68  57  68 W6        30.02F
$$

IAZ001>003-012>014-020>022-031-032-NEZ013-014-SDZ071-031700-
NORTHWEST IOWA

CITY           SKY/WX    TMP DP  RH WIND       PRES   REMARKS
DENISON        SUNNY     68  54  60 CALM      30.02R
ESTHERVILLE    SUNNY     70  59  68 VRB3      30.01F
SIOUX CITY     SUNNY     69  57  65 CALM      30.03S
SPENCER        SUNNY     72  55  55 W6        30.03S
$$

ABBREVIATIONS USED IN REMARKS
   TC - TEMPERATURE IN CELSIUS
  WCI - WIND CHILL INDEX
   HX - HEAT INDEX
  VSB - VISIBILITY




USA.gov is the U.S. government's official web portal to all federal, state and local government web resources and services.